YAMAL 601

Last updated on Thu Sep 24 2026 00:03:19 GMT+0000 (Coordinated Universal Time)

1 44307U 19031A 26266.63710330 .00000118 00000+0 00000+0 0 9995 2 44307 0.0157 155.7808 0002435 21.8279 103.2490 1.00272612 26918
UTC large
Height (km)
Speed (km/s)
/
Latitude / Longitude
Inclination (degrees)
Orbital Period (minutes)
Azimuth
Elevation
Range (km)
Doppler Factor

Next 0 passes for location: London (51.5072 / 0.1276)

No passes found over London.
YAMAL 601